[[{"header":{"parameterUnit":"m.s-1","parameterCategory":1,"la1":30.2991,"la2":30.254,"lo1":-89.0895,"lo2":-89.0444,"dy":0.0017,"dx":0.0017,"nx":28,"ny":28,"refTime":"2025-03-24T03:00:00:Z","depth":0,"parameterNumber":2,"parameterNumberName":"U-component_of_WINDS"},"data":[0,0,0,0,0,0,0,0,0,0,0,0,0,0,0,0,0,0,0,0,0,0,0,0,0,0,0,0,0,0,0,0,0,0,0,0,0,0,0,0,0,0,0,0,0,0,0,0,0,0,0,0,0,0,0,0,0,0,1.8629,1.863,0,1.8744,1.8745,1.8746,1.8712,1.871,1.8707,1.8705,1.8827,1.8832,1.8838,0,0,0,0,0,0,0,0,0,0,0,0,0,1.8383,1.8388,1.8629,1.863,1.8632,1.8744,1.8745,1.8747,1.8713,1.871,1.8707,1.8704,1.8825,1.8832,1.8838,0,0,0,0,0,0,0,0,0,0,0,0,0,1.8493,1.839,1.8629,1.8628,1.8629,1.8743,1.8745,1.8747,1.8713,1.871,1.8706,1.8703,1.8823,1.8831,1.8839,1.8962,0,0,1.8864,1.8868,0,0,0,0,0,0,0,0,1.8487,1.8502,1.8627,1.8628,1.863,1.871,1.8703,1.8819,1.8714,1.8682,1.8705,1.8701,1.8791,1.8802,1.8831,1.8968,1.8973,1.8865,1.887,1.8874,1.8876,0,0,0,0,0,0,0,1.848,1.8497,1.8674,1.8629,1.8631,1.8623,1.8635,1.8725,1.8755,1.8684,1.8682,1.8696,1.8792,1.8824,1.8834,1.8975,1.8865,1.8872,1.8877,1.888,1.9216,1.922,0,0,0,0,0,0,1.847,1.8491,1.8671,1.8678,1.8548,1.8631,1.8644,1.8688,1.8754,1.8761,1.8699,1.8694,1.8811,1.8825,1.8838,1.8985,1.8874,1.8881,1.8886,1.9212,1.9217,1.9221,0,0,0,0,0,0,1.8465,1.8487,1.8666,1.8584,1.8606,1.8639,1.8689,1.8692,1.8724,1.8765,1.8771,1.8726,1.8809,1.8827,1.8931,1.8989,1.8885,1.8892,1.9207,1.9214,1.9219,1.9281,0,0,0,0,0,0,1.8458,1.8485,1.8531,1.8585,1.8611,1.8756,1.8692,1.8697,1.8738,1.8732,1.8792,1.8799,1.8808,1.8919,1.8939,1.8998,1.8899,1.9202,1.921,1.9217,1.9274,1.9288,1.9301,0,0,0,0,0,1.845,1.8546,1.8534,1.8556,1.8669,1.876,1.8774,1.8781,1.8743,1.879,1.8816,1.8797,1.8979,1.893,1.8952,1.9015,1.9199,1.9208,1.9217,1.9268,1.9285,1.93,0,0,0,0,0,0,1.8499,1.8553,1.854,1.8656,1.8703,1.8754,1.8813,1.88,1.886,1.8853,1.8861,1.8875,1.8981,1.9009,1.8952,1.9137,1.9083,1.9097,1.9115,1.9132,1.9145,1.9136,1.8906,0,0,0,0,0,1.8523,1.8591,1.8635,1.8733,1.8757,1.8781,1.8821,1.8822,1.8872,1.8892,1.8926,1.8976,1.9044,1.909,1.9155,1.9277,1.929,1.9332,1.9345,1.9356,1.9368,1.9434,1.9453,1.9251,1.9251,1.925,0,0,1.8575,1.8612,1.8655,1.8744,1.878,1.8851,1.8798,1.8876,1.8929,1.8904,1.9004,1.9031,1.9087,1.92,1.9252,1.9227,1.9426,1.9367,1.9376,1.9382,1.9445,1.9464,1.9481,1.9257,1.9256,1.9255,0,0,1.8704,1.8739,1.8824,1.8861,1.8917,1.8932,1.8953,1.9005,1.9021,1.9121,1.9104,1.9167,1.9285,1.9326,1.9362,1.9505,1.9489,1.9526,1.9596,1.966,1.9676,1.969,1.9741,1.9759,1.9538,1.9538,1.9538,0,1.8761,1.8866,1.887,1.8948,1.8988,1.8967,1.9054,1.909,1.9165,1.9193,1.9163,1.931,1.9347,1.9468,1.9503,1.9533,1.9557,1.952,1.9673,1.9687,1.9701,1.9749,1.9768,1.9542,1.9542,1.9541,1.9541,0,1.8933,1.9006,1.9068,1.9138,1.9185,1.9267,1.9284,1.9331,1.9328,1.9347,1.9448,1.9491,1.9564,1.9594,1.9592,1.9715,1.9698,1.9671,1.9617,1.9724,1.9769,1.9788,1.9548,1.9547,1.9545,1.9544,0,0,1.9097,1.9168,1.919,1.9222,1.9281,1.9338,1.9419,1.9489,1.9529,1.9581,1.9649,1.9749,1.9724,1.9765,1.9768,1.9824,1.9933,1.979,1.9791,1.9814,2.0071,2.009,2.0111,1.9923,1.9927,1.9929,2.0065,0,1.923,1.9372,1.9377,1.9506,1.9574,1.9555,1.9625,1.967,1.9689,1.975,1.9772,1.9842,1.9803,1.9828,1.9883,1.9908,1.9985,1.9899,1.9987,1.999,1.9973,2.0135,2.0157,2.0283,2.0083,2.0086,2.0089,0,1.9405,1.9461,1.9596,1.9645,1.9673,1.9737,1.98,1.9859,1.9908,1.9919,1.9963,1.9958,2.0041,1.9985,2.01,2.0041,2.0078,2.0096,2.0101,2.0109,2.0046,2.0147,2.0324,2.0342,2.0117,2.0114,2.0112,0,1.951,1.9619,1.9714,1.9742,1.9801,1.9846,1.9873,1.9919,1.996,2.0017,2.0043,2.0109,2.0145,2.0197,2.0209,2.0167,2.0324,2.0269,2.0335,2.0335,2.0369,2.0366,2.0553,2.0393,2.0393,2.0393,2.0392,0,1.9658,1.9742,1.9762,1.982,1.9913,1.9919,2.0011,2.0035,2.0076,2.0139,2.0127,2.0187,2.02,2.0262,2.0273,2.0366,2.0383,2.0393,2.0395,2.0394,2.0393,2.0418,2.0409,2.0398,2.0397,2.0396,2.0395,0,1.9792,1.9808,1.991,1.9957,1.9971,2.0038,2.0078,2.0134,2.0152,2.0231,2.0251,2.0278,2.0351,2.0368,2.0456,2.0462,2.0572,2.0566,2.0555,2.0554,2.0619,2.0612,2.0828,2.0856,2.0679,2.068,2.0682,0,1.9885,1.9948,2.0002,2.0042,2.0071,2.0137,2.0178,2.0187,2.0231,2.0291,2.034,2.0411,2.0468,2.0585,2.0614,2.068,2.0675,2.0745,2.0685,2.0681,2.0675,2.067,2.0676,2.0757,2.0759,2.076,2.0762,0,2.0048,2.0053,2.0112,2.0175,2.0225,2.0275,2.0323,2.0357,2.0372,2.0422,2.0495,2.0539,2.0627,2.0697,2.0763,2.0792,2.078,2.078,2.0799,2.0798,2.0789,2.0794,2.0586,2.0775,2.0774,2.0773,2.0772,2.0772,2.0163,2.0218,2.0264,2.0331,2.0368,2.0412,2.0467,2.049,2.0551,2.0622,2.0624,2.0703,2.0751,2.0838,2.0871,2.0933,2.0912,2.0939,2.0946,2.0952,2.0957,2.0779,2.0946,2.0945,2.0945,2.0945,2.0944,0,2.0325,2.0353,2.0415,2.0481,2.0534,2.0516,2.0568,2.0613,2.0683,2.0728,2.0784,2.0867,2.0935,2.0968,2.1036,2.1079,2.1075,2.1097,2.1093,2.11,2.0973,2.095,2.1099,2.1099,2.1099,2.1099,2.1099,2.1099,2.0415,2.0507,2.0518,2.0627,2.0655,2.0732,2.0763,2.0804,2.084,2.0933,2.0989,2.101,2.105,2.112,2.1181,2.1189,2.1214,2.1239,2.1244,2.1125,2.1109,2.1094,2.1072,2.1244,2.1244,2.1365,2.1366,2.1367]},{"header":{"parameterUnit":"m.s-1","parameterCategory":1,"la1":30.2991,"la2":30.254,"lo1":-89.0895,"lo2":-89.0444,"dy":0.0017,"dx":0.0017,"nx":28,"ny":28,"refTime":"2025-03-24T03:00:00:Z","depth":0,"parameterNumber":3,"parameterNumberName":"V-component_of_WINDS"},"data":[0,0,0,0,0,0,0,0,0,0,0,0,0,0,0,0,0,0,0,0,0,0,0,0,0,0,0,0,0,0,0,0,0,0,0,0,0,0,0,0,0,0,0,0,0,0,0,0,0,0,0,0,0,0,0,0,0,0,3.376,3.376,0,3.3763,3.3763,3.3763,3.3755,3.3754,3.3754,3.3754,3.3753,3.3753,3.3754,0,0,0,0,0,0,0,0,0,0,0,0,0,3.3741,3.3742,3.376,3.376,3.376,3.3763,3.3763,3.3763,3.3755,3.3754,3.3754,3.3754,3.3753,3.3753,3.3754,0,0,0,0,0,0,0,0,0,0,0,0,0,3.3747,3.3742,3.376,3.3756,3.3756,3.3763,3.3763,3.3763,3.3755,3.3754,3.3754,3.3754,3.3753,3.3753,3.3754,3.3763,0,0,3.3755,3.3755,0,0,0,0,0,0,0,0,3.3747,3.3748,3.3757,3.3757,3.3756,3.3758,3.3756,3.3762,3.3755,3.3755,3.3754,3.3754,3.3755,3.3755,3.3756,3.3762,3.3762,3.3755,3.3755,3.3755,3.3755,0,0,0,0,0,0,0,3.3747,3.3748,3.3761,3.3757,3.3757,3.3752,3.3753,3.3757,3.3757,3.3755,3.3755,3.3755,3.3755,3.3756,3.3756,3.3762,3.3755,3.3755,3.3755,3.3755,3.3772,3.3772,0,0,0,0,0,0,3.3747,3.3747,3.3761,3.3761,3.3751,3.3753,3.3754,3.3758,3.3757,3.3756,3.3755,3.3755,3.3756,3.3756,3.3756,3.3764,3.3755,3.3755,3.3755,3.3771,3.3772,3.3772,0,0,0,0,0,0,3.3747,3.3749,3.3761,3.3754,3.3755,3.3754,3.3758,3.3758,3.3759,3.3757,3.3756,3.3757,3.3755,3.3756,3.376,3.3764,3.3755,3.3756,3.3771,3.3772,3.3772,3.3781,0,0,0,0,0,0,3.3746,3.3748,3.3754,3.3754,3.3756,3.3767,3.3759,3.3758,3.376,3.3759,3.3759,3.3758,3.3755,3.376,3.3761,3.3764,3.3756,3.3771,3.3771,3.3772,3.3781,3.3782,3.3783,0,0,0,0,0,3.3746,3.3756,3.3754,3.3756,3.3762,3.3767,3.3768,3.3765,3.3761,3.3764,3.3762,3.3758,3.3763,3.376,3.3761,3.3765,3.3771,3.3771,3.3772,3.378,3.3782,3.3783,0,0,0,0,0,0,3.3756,3.3756,3.3754,3.3765,3.3766,3.3766,3.3771,3.3767,3.3769,3.3768,3.3763,3.3763,3.3768,3.3767,3.3763,3.3771,3.3766,3.3767,3.3772,3.3774,3.3775,3.3775,3.3756,0,0,0,0,0,3.3759,3.3765,3.3764,3.3774,3.3775,3.3773,3.3775,3.3772,3.3773,3.3773,3.3771,3.377,3.3771,3.3772,3.3774,3.378,3.3778,3.3783,3.3784,3.3785,3.3786,3.3786,3.3787,3.3774,3.3774,3.3774,0,0,3.3767,3.3768,3.3771,3.3776,3.3777,3.378,3.3773,3.3778,3.378,3.3773,3.3777,3.3776,3.3774,3.3779,3.3781,3.3778,3.3788,3.3786,3.3787,3.3787,3.3786,3.3788,3.3789,3.3774,3.3774,3.3774,0,0,3.3782,3.3784,3.3791,3.3791,3.3792,3.379,3.3791,3.3791,3.379,3.3794,3.3788,3.3789,3.3792,3.379,3.379,3.38,3.3795,3.38,3.3806,3.3807,3.3808,3.3808,3.381,3.3811,3.3801,3.3801,3.3801,0,3.3791,3.3798,3.3795,3.3799,3.38,3.3794,3.3799,3.3799,3.38,3.38,3.3797,3.3798,3.3797,3.38,3.3802,3.3802,3.3802,3.38,3.3808,3.3809,3.3809,3.3811,3.3812,3.3801,3.3801,3.3801,3.3801,0,3.3807,3.3811,3.3816,3.3817,3.3818,3.3823,3.3819,3.382,3.3817,3.3814,3.3816,3.3814,3.3813,3.3814,3.3811,3.3815,3.3813,3.3809,3.3804,3.3811,3.3812,3.3813,3.3802,3.3802,3.3802,3.3801,0,0,3.383,3.3827,3.3829,3.3828,3.3827,3.3829,3.3832,3.3832,3.3832,3.3831,3.3832,3.3833,3.3828,3.3827,3.3823,3.3824,3.3829,3.3819,3.3819,3.382,3.3831,3.3833,3.3834,3.3826,3.3826,3.3826,3.383,0,3.3843,3.385,3.3846,3.3852,3.3854,3.3847,3.3849,3.3847,3.3844,3.3843,3.3839,3.3839,3.3834,3.3833,3.3833,3.3829,3.3831,3.3828,3.3824,3.3824,3.3825,3.3835,3.3839,3.3844,3.3831,3.3831,3.3831,0,3.386,3.386,3.3867,3.3862,3.3863,3.3865,3.3863,3.3863,3.3859,3.3857,3.3855,3.3849,3.3849,3.3844,3.3842,3.384,3.3838,3.3835,3.3835,3.3834,3.3828,3.3834,3.3845,3.3846,3.3832,3.3832,3.3832,0,3.3873,3.3875,3.3879,3.3878,3.3873,3.3875,3.3872,3.3868,3.3867,3.3865,3.3863,3.386,3.3859,3.3855,3.3848,3.3845,3.3846,3.3841,3.3842,3.3842,3.3843,3.3843,3.3853,3.3843,3.3843,3.3843,3.3843,0,3.3888,3.3892,3.3884,3.3886,3.3889,3.3883,3.3885,3.3882,3.3878,3.3878,3.3871,3.387,3.3861,3.3859,3.3853,3.3851,3.385,3.3846,3.3845,3.3847,3.3847,3.3845,3.3844,3.3843,3.3843,3.3843,3.3843,0,3.3904,3.3899,3.3902,3.3897,3.3895,3.3897,3.3892,3.3892,3.3888,3.3887,3.3886,3.3878,3.3875,3.3867,3.3862,3.3858,3.3856,3.3854,3.3858,3.3857,3.3858,3.3858,3.3867,3.3867,3.3857,3.3858,3.3858,0,3.3913,3.3916,3.391,3.391,3.3908,3.3907,3.3906,3.3899,3.3897,3.3892,3.3892,3.3888,3.3884,3.3878,3.3871,3.3866,3.3862,3.3866,3.3862,3.3863,3.3861,3.386,3.386,3.3867,3.3867,3.3867,3.3867,0,3.3929,3.3926,3.3925,3.3922,3.3921,3.3918,3.3915,3.3915,3.3906,3.3905,3.3901,3.3898,3.3892,3.3887,3.388,3.3876,3.3869,3.3869,3.3868,3.387,3.3872,3.3869,3.386,3.3868,3.3868,3.3868,3.3868,3.3868,3.3941,3.3942,3.3937,3.3935,3.3932,3.3929,3.3928,3.3923,3.392,3.3915,3.3911,3.3907,3.39,3.389,3.3886,3.3881,3.3878,3.3879,3.3878,3.3878,3.3878,3.3873,3.388,3.388,3.388,3.388,3.388,0,3.3955,3.3951,3.395,3.3945,3.3943,3.3938,3.3933,3.3931,3.3928,3.3923,3.3919,3.3914,3.3908,3.39,3.3893,3.3891,3.3888,3.3889,3.3889,3.3888,3.3882,3.3882,3.3892,3.3892,3.3892,3.3892,3.3892,3.3892,3.3962,3.3962,3.3958,3.3956,3.3952,3.3949,3.3946,3.3942,3.3937,3.3932,3.3927,3.3922,3.3915,3.3907,3.3901,3.3898,3.3896,3.3898,3.3894,3.3889,3.3888,3.3887,3.3887,3.3898,3.3898,3.39,3.39,3.39]}]]